Joplin, MO

10:29 PM CDT on September 22, 2017 (GMT -0500)
Joplin Regional

Weather History for KJLN - May, 2013

Change the Weather History Date:

Sunday, May 26, 2013

  Actual Average Record
Temperature  
Mean Temperature 75 °F 70 °F  
Max Temperature 83 °F 80 °F 94 °F (1953)
Min Temperature 67 °F 59 °F 41 °F (1988)
Degree Days  
Heating Degree Days 0 1  
Month to date heating degree days 142 61  
Since 1 July heating degree days 4246 4064  
Cooling Degree Days 10 6  
Month to date cooling degree days 69 95  
Year to date cooling degree days 99 149  
Growing Degree Days 24 (Base 50)    
Moisture  
Dew Point 64 °F    
Average Humidity 73    
Maximum Humidity 87    
Minimum Humidity 58    
Precipitation  
Precipitation 0.00 in 0.18 in 2.27 in (1963)
Month to date precipitation 4.77 4.80  
Year to date precipitation 19.27 17.04  
Sea Level Pressure  
Sea Level Pressure 30.01 in    
Wind  
Wind Speed 13 mph (South)    
Max Wind Speed 23 mph    
Max Gust Speed 31 mph    
Visibility 10 miles    
Events      
T = Trace of Precipitation, MM = Missing Value Source: NWS Daily Summary

Daily Weather History Graph

Daily Weather History Graph

Search for Another Location

Airport or City:

Trip Planner

Search our weather history database for the weather conditions in past years. The results will help you decide how hot, cold, wet, or windy it might be!

Date:

Astronomy

May. 26, 2013 Rise Set
Actual Time 6:02 AM CDT 8:28 PM CDT
Civil Twilight 5:32 AM CDT 8:58 PM CDT
Nautical Twilight 4:55 AM CDT 9:35 PM CDT
Astronomical Twilight 4:14 AM CDT 10:16 PM CDT
Moon 10:17 PM CDT (5/26) 7:31 AM CDT (5/26)
Length of Visible Light 15h 26m
Length of Day
14h 26m
Waning Gibbous, 96% of the Moon is Illuminated
May 26
Waning Gibbous
May 31
Last Quarter
Jun 8
New
Jun 16
First Quarter
Jun 23
Full

Hourly Weather History & Observations

Time (CDT) Temp. Heat Index Dew Point Humidity Pressure Visibility Wind Dir Wind Speed Gust Speed Precip Events Conditions
12:53 AM 69.1 °F - 63.0 °F 81% 30.08 in 10.0 mi SSE 9.2 mph - N/A   Clear
1:53 AM 69.1 °F - 63.0 °F 81% 30.07 in 10.0 mi SSE 9.2 mph - N/A   Clear
2:53 AM 69.1 °F - 63.0 °F 81% 30.05 in 10.0 mi South 11.5 mph - N/A   Mostly Cloudy
3:53 AM 69.1 °F - 63.0 °F 81% 30.04 in 10.0 mi SSE 9.2 mph - N/A   Overcast
4:53 AM 68.0 °F - 63.0 °F 84% 30.04 in 10.0 mi SSE 9.2 mph - N/A   Overcast
5:53 AM 66.9 °F - 63.0 °F 87% 30.04 in 10.0 mi South 9.2 mph - N/A   Mostly Cloudy
6:53 AM 68.0 °F - 64.0 °F 87% 30.05 in 10.0 mi South 6.9 mph - N/A   Clear
7:53 AM 71.1 °F - 64.0 °F 78% 30.05 in 10.0 mi South 10.4 mph - N/A   Clear
8:53 AM 73.0 °F - 64.9 °F 76% 30.05 in 10.0 mi South 13.8 mph - N/A   Clear
9:53 AM 75.9 °F - 66.0 °F 71% 30.05 in 10.0 mi South 17.3 mph 24.2 mph N/A   Clear
10:53 AM 78.1 °F - 66.0 °F 66% 30.05 in 10.0 mi SSW 19.6 mph 26.5 mph N/A   Scattered Clouds
11:53 AM 79.0 °F - 66.9 °F 66% 30.05 in 10.0 mi SSW 12.7 mph 25.3 mph N/A   Mostly Cloudy
12:53 PM 80.1 °F 82.3 °F 66.9 °F 64% 30.02 in 10.0 mi South 20.7 mph 25.3 mph N/A   Mostly Cloudy
1:53 PM 80.1 °F 82.1 °F 66.0 °F 62% 30.01 in 10.0 mi South 17.3 mph 27.6 mph N/A   Mostly Cloudy
2:53 PM 82.9 °F 85.4 °F 66.9 °F 58% 29.99 in 9.0 mi South 18.4 mph - N/A   Mostly Cloudy
3:53 PM 80.1 °F 82.1 °F 66.0 °F 62% 29.98 in 10.0 mi South 17.3 mph 25.3 mph N/A   Mostly Cloudy
4:53 PM 81.0 °F 83.0 °F 66.0 °F 60% 29.97 in 10.0 mi South 19.6 mph 26.5 mph N/A   Scattered Clouds
5:53 PM 80.1 °F 81.9 °F 64.9 °F 60% 29.96 in 10.0 mi South 12.7 mph - N/A   Clear
6:53 PM 78.1 °F - 64.0 °F 62% 29.95 in 10.0 mi South 9.2 mph - N/A   Overcast
7:53 PM 75.9 °F - 63.0 °F 64% 29.94 in 10.0 mi South 10.4 mph - N/A   Clear
8:53 PM 73.9 °F - 63.0 °F 68% 29.94 in 10.0 mi SSE 9.2 mph - N/A   Clear
9:53 PM 72.0 °F - 63.0 °F 73% 29.95 in 10.0 mi SSE 6.9 mph - N/A   Clear
10:53 PM 72.0 °F - 63.0 °F 73% 29.96 in 10.0 mi South 9.2 mph - N/A   Clear
11:53 PM 72.0 °F - 62.1 °F 71% 29.95 in 10.0 mi South 12.7 mph 20.7 mph N/A   Clear